Flag for Brazil Weather past 2 weeks in Barra do Garças, Mato Grosso, Brazil

Now
66 °F

Clear.


Feels Like: 66 °F
Forecast: 68 / 100 °F
Wind: No wind

Location: Goiania Aeroporto

Current Time: Aug 29, 2014 at 5:54:36 AM

Latest Report: Aug 29, 2014 at 5:00 AM


Visibility: 10 mi

Pressure: 30.04 "Hg

Humidity: 73%

Dew point: 57 °F

Location of Barra do GarçasLocation

Historic Weather in Barra do Garças — Graph

°F

Barra do Garças temperature yesterday

Maximum temperature yesterday: 95 °F (at 3:00 PM)
Minimum temperature yesterday: 63 °F (at 7:00 AM)
Average temperature yesterday: 79 °F

Past Weeks' High & Low Weather Summary

 TemperatureHumidityPressure
High95 °F (Aug 28, 3:00 PM)82% (Aug 19, 7:00 AM)30.30 "Hg (Aug 19, 7:00 AM)
Low57 °F (Aug 25, 5:00 AM)11% (Aug 24, 3:00 PM)29.80 "Hg (Aug 28, 1:00 PM)
Average75 °F38%30.10 "Hg
* Reported Aug 14 5:00 AM — Aug 29 5:00 AM, Barra do Garças, Weather by CustomWeather, © 2014

Note: Actual official high and low records may vary slightly from our data, if they occured in-between our weather recording intervals... More about our weather records

Advertising

Barra do Garças weather history for previous 24 hours

 ConditionsComfort  
Time TempWeatherWind HumidityBarometerVisibility
5:00 AM
Aug 29
66 °FClear.No wind73%30.04 "Hg10 mi
4:00 AM66 °FClear.2 mph73%30.04 "Hg10 mi
3:00 AM70 °FClear.3 mph53%30.04 "Hg10 mi
2:00 AM70 °FClear.No wind60%30.04 "Hg10 mi
1:00 AM72 °FClear.3 mph57%30.07 "Hg10 mi
12:00 AM77 °FClear.7 mph44%30.07 "Hg10 mi
11:00 PM
Aug 28
81 °FClear.5 mph34%30.07 "Hg10 mi
10:00 PM81 °FClear.5 mph32%30.07 "Hg10 mi
9:00 PM84 °FClear.2 mph27%30.04 "Hg10 mi
8:00 PM86 °FClear.7 mph25%30.01 "Hg10 mi
7:00 PM86 °FPassing clouds.3 mph25%29.98 "HgN/A
6:00 PM88 °FScattered clouds.3 mph19%29.98 "HgN/A
5:00 PM88 °FScattered clouds.8 mph22%29.95 "HgN/A
4:00 PM91 °FScattered clouds.6 mph17%29.95 "HgN/A
3:00 PM95 °FScattered clouds.3 mph15%29.95 "HgN/A
2:00 PM93 °FScattered clouds.6 mph15%29.98 "HgN/A
1:00 PM93 °FScattered clouds.13 mph15%29.80 "HgN/A
12:00 PM91 °FPassing clouds.8 mph18%30.04 "Hg4 mi
11:00 AM86 °FClear.8 mph29%30.07 "Hg4 mi
10:00 AM81 °FClear.8 mph39%30.07 "Hg4 mi
9:00 AM73 °FClear.7 mph50%30.09 "Hg4 mi
8:00 AM68 °FClear.7 mph60%30.07 "Hg4 mi
7:00 AM63 °FClear.5 mph77%30.07 "Hg6 mi
6:00 AM64 °FClear.3 mph68%30.04 "Hg10 mi
5:00 AM64 °FClear.3 mph73%30.01 "Hg10 mi
Weather by CustomWeather, © 2014

See weather overviewHow to use our weather pages